Weather in Serzhen-Yurt

Russia / Chechen Republic     43°06′42″N   45°59′24″E
temp.,
°C
wind,
m/s
gust,
m/s
humid.,
%
clouds,
%
prec.,
mm/h
press.,
hPa
HPBL,
m
23 october, sat
sat2300:00+11s21620 0.0 102011
03:00+10s21620 0.0 102111
06:00+9s22620 0.0 102112
09:00+14nnw11480 0.0 1021246
12:00+17n22420 0.0 1019717
15:00+16n21450 0.0 1019634
18:00+11s21650 0.0 102012
21:00+10s22680 0.0 102014
24 october, sun
sun2400:00+10s22700 0.0 101911
03:00+9s22700 0.0 102014
06:00+9s22690 0.0 102015
09:00+14nnw11525 0.0 1020401
12:00+16n22475 0.0 1018959
15:00+15nne225014 0.0 1016803
18:00+10sse116758 0.0 101710
21:00+9s116791 0.0 101612
25 october, mon
mon2500:00+9s116887 0.0 101511
03:00+8ssw1168100 0.0 101610
06:00+8sw1170100 0.0 101812
09:00+10wnw2464100 0.0 1020601
12:00+8nw3486100 0.1 1023774
15:00+5nw2496100 2.1 1026685
18:00+4wnw2395100 2.9 1029688
21:00+3nw2298100 5.8 1030539
26 october, tue
tue2600:00+2nnw1298100 1.1 1030416
03:00+2nw1298100 1.6 1031412
06:00+2nnw1298100 0.3 1031459
09:00+3nnw1197100 0.8 1032335
12:00+3n1195100 0.4 1031347
15:00+3nne1292100 0.4 1031336
18:00+3ne1194100 0.0 1031119
21:00+3nne119489 0.0 103199
27 october, wed
wed2700:00+2ese019550 0.0 103052
03:00+2se019441 0.0 102917
06:00+1se009322 0.0 102932
09:00+5nne118366 0.0 1029451
12:00+6n218087 0.0 1027615
15:00+6nnw118595 0.0 1026379
18:00+5wnw019091 0.0 102676
21:00+4sse119251 0.0 102516